CW5757 Weather Reports


Display with metric or nautical units.
time (UTC)temp
F
wind
direction
speed
MPH
gust
MPH
rain 1hr
in
rain 24hr
in
rain mn
in
humidity
%
barometer
mb
20260510190826 86 41 0.0 0.0 0.00 0.00 0.00 26 1015.7
20260510190326 86 41 0.0 0.0 0.00 0.00 0.00 30 1015.7
20260510185826 85 41 0.0 0.0 0.00 0.00 0.00 34 1015.8
20260510185326 85 41 0.0 0.0 0.00 0.00 0.00 36 1015.8
20260510184831 85 41 0.0 0.0 0.00 0.00 0.00 33 1015.9
20260510184338 85 41 0.0 0.0 0.00 0.00 0.00 33 1015.9
20260510183826 85 41 0.0 0.0 0.00 0.00 0.00 31 1016.0
20260510183326 85 41 0.0 0.0 0.00 0.00 0.00 35 1016.0
20260510182831 85 41 0.0 0.0 0.00 0.00 0.00 32 1016.1
20260510182338 85 41 0.0 0.0 0.00 0.00 0.00 34 1016.0
20260510181826 84 41 0.0 0.0 0.00 0.00 0.00 33 1016.1
20260510181326 84 41 0.0 0.0 0.00 0.00 0.00 37 1016.1
20260510180825 84 41 0.0 0.0 0.00 0.00 0.00 35 1016.0
20260510180326 84 41 0.0 0.0 0.00 0.00 0.00 37 1016.1
20260510175831 84 41 0.0 0.0 0.00 0.00 0.00 37 1016.0
20260510175338 84 41 0.0 0.0 0.00 0.00 0.00 38 1016.0
20260510174831 83 41 0.0 0.0 0.00 0.00 0.00 42 1016.1
20260510174338 83 41 0.0 0.0 0.00 0.00 0.00 40 1016.2
20260510173826 83 41 0.0 0.0 0.00 0.00 0.00 40 1016.3
20260510173325 83 41 0.0 0.0 0.00 0.00 0.00 43 1016.3
20260510172826 83 41 0.0 0.0 0.00 0.00 0.00 40 1016.3
20260510172326 82 41 0.0 0.0 0.00 0.00 0.00 40 1016.3
20260510171825 82 41 0.0 0.0 0.00 0.00 0.00 42 1016.5
20260510171326 81 41 0.0 0.0 0.00 0.00 0.00 41 1016.4
20260510170825 81 41 0.0 0.0 0.00 0.00 0.00 45 1016.5
20260510165849 81 41 0.0 0.0 0.00 0.00 0.00 42 1016.5
20260510165349 81 41 0.0 0.0 0.00 0.00 0.00 43 1016.5
20260510164849 81 41 0.0 0.0 0.00 0.00 0.00 45 1016.6
20260510164354 80 41 0.0 0.0 0.00 0.00 0.00 44 1016.7
20260510163901 79 41 0.0 0.0 0.00 0.00 0.00 51 1016.6
20260510163349 79 41 0.0 0.0 0.00 0.00 0.00 48 1016.6
20260510162849 78 41 0.0 0.0 0.00 0.00 0.00 48 1016.7
20260510162349 78 41 0.0 0.0 0.00 0.00 0.00 50 1016.7
20260510161849 78 41 0.0 0.0 0.00 0.00 0.00 48 1016.7
20260510161349 78 41 0.0 0.0 0.00 0.00 0.00 49 1016.8
20260510160852 77 41 0.0 0.0 0.00 0.00 0.00 47 1016.9
20260510160359 77 41 0.0 0.0 0.00 0.00 0.00 50 1017.0
20260510155906 77 41 0.0 0.0 0.00 0.00 0.00 49 1016.9
20260510155401 76 41 0.0 0.0 0.00 0.00 0.00 52 1017.1
20260510154849 76 41 0.0 0.0 0.00 0.00 0.00 52 1017.0
20260510154349 76 41 0.0 0.0 0.00 0.00 0.00 51 1017.0
20260510153854 75 41 0.0 0.0 0.00 0.00 0.00 55 1016.9
20260510153401 75 41 0.0 0.0 0.00 0.00 0.00 55 1017.0
20260510152854 74 41 0.0 0.0 0.00 0.00 0.00 58 1016.9
20260510152401 73 41 0.0 0.0 0.00 0.00 0.00 63 1017.0
20260510151849 73 41 0.0 0.0 0.00 0.00 0.00 63 1017.1
20260510151349 72 41 0.0 0.0 0.00 0.00 0.00 63 1017.1
20260510150849 72 41 0.0 0.0 0.00 0.00 0.00 65 1017.0
20260510150352 72 41 0.0 0.0 0.00 0.00 0.00 65 1017.1
20260510145859 71 41 0.0 0.0 0.00 0.00 0.00 68 1017.1
20260510145406 71 41 0.0 0.0 0.00 0.00 0.00 68 1017.1
20260510144901 70 41 0.0 0.0 0.00 0.00 0.00 67 1017.1
20260510144349 70 41 0.0 0.0 0.00 0.00 0.00 69 1016.9
20260510143848 69 41 0.0 0.0 0.00 0.00 0.00 71 1016.9
20260510143353 69 41 0.0 0.0 0.00 0.00 0.00 72 1016.9
20260510142900 68 41 0.0 0.0 0.00 0.00 0.00 73 1016.9
20260510142349 68 41 0.0 0.0 0.00 0.00 0.00 73 1016.8
20260510141849 68 41 0.0 0.0 0.00 0.00 0.00 74 1016.7
20260510141352 67 41 0.0 0.0 0.00 0.00 0.00 76 1016.7
20260510140852 67 41 0.0 0.0 0.00 0.00 0.00 77 1016.7
20260510140349 66 41 0.0 0.0 0.00 0.00 0.00 78 1016.8
20260510135853 66 41 0.0 0.0 0.00 0.00 0.00 80 1016.8
20260510135401 65 41 0.0 0.0 0.00 0.00 0.00 80 1016.8
20260510134849 65 41 0.0 0.0 0.00 0.00 0.00 82 1016.7
20260510134349 64 41 0.0 0.0 0.00 0.00 0.00 83 1016.8
20260510133849 64 41 0.0 0.0 0.00 0.00 0.00 84 1016.7
20260510133354 64 41 0.0 0.0 0.00 0.00 0.00 84 1016.7
20260510132901 63 41 0.0 0.0 0.00 0.00 0.00 85 1016.7
20260510132354 63 41 0.0 0.0 0.00 0.00 0.00 85 1016.6
20260510131901 63 41 0.0 0.0 0.00 0.00 0.00 85 1016.6
20260510131352 62 41 0.0 0.0 0.00 0.00 0.00 85 1016.7
20260510130859 62 41 0.0 0.0 0.00 0.00 0.00 86 1016.6
20260510130406 62 41 0.0 0.0 0.00 0.00 0.00 85 1016.7
20260510125913 62 41 0.0 0.0 0.00 0.00 0.00 86 1016.7
20260510125348 61 41 0.0 0.0 0.00 0.00 0.00 86 1016.7
20260510124849 61 41 0.0 0.0 0.00 0.00 0.00 85 1016.5
20260510124349 61 41 0.0 0.0 0.00 0.00 0.00 85 1016.4
20260510123854 61 41 0.0 0.0 0.00 0.00 0.00 86 1016.4
20260510123401 60 41 0.0 0.0 0.00 0.00 0.00 85 1016.5
20260510122854 60 41 0.0 0.0 0.00 0.00 0.00 85 1016.5
20260510122400 60 41 0.0 0.0 0.00 0.00 0.00 85 1016.4
20260510121848 60 41 0.0 0.0 0.00 0.00 0.00 85 1016.4
20260510121349 59 41 0.0 0.0 0.00 0.00 0.00 85 1016.3
20260510120849 59 41 0.0 0.0 0.00 0.00 0.00 85 1016.3
20260510120349 59 41 0.0 0.0 0.00 0.00 0.00 85 1016.1
20260510115849 59 41 0.0 0.0 0.00 0.00 0.00 85 1016.0
20260510115354 59 41 0.0 0.0 0.00 0.00 0.00 85 1015.9
20260510114901 59 41 0.0 0.0 0.00 0.00 0.00 85 1015.8
20260510114349 58 41 0.0 0.0 0.00 0.00 0.00 84 1015.8
20260510113848 58 41 0.0 0.0 0.00 0.00 0.00 84 1015.7
20260510113354 58 41 0.0 0.0 0.00 0.00 0.00 84 1015.6
20260510112900 58 41 0.0 0.0 0.00 0.00 0.00 84 1015.6
20260510112349 58 41 0.0 0.0 0.00 0.00 0.00 84 1015.6
20260510111849 58 41 0.0 0.0 0.00 0.00 0.00 84 1015.4
20260510111349 58 41 0.0 0.0 0.00 0.00 0.00 83 1015.4
20260510110848 58 41 0.0 0.0 0.00 0.00 0.00 83 1015.3
20260510110354 58 41 0.0 0.0 0.00 0.00 0.00 83 1015.2
20260510105901 58 41 0.0 0.0 0.00 0.00 0.00 83 1015.3
20260510105349 59 41 0.0 0.0 0.00 0.00 0.00 83 1015.1
20260510104849 59 41 0.0 0.0 0.00 0.00 0.00 83 1015.1
20260510104349 59 41 0.0 0.0 0.00 0.00 0.00 83 1015.0
20260510103849 59 41 0.0 0.0 0.00 0.00 0.00 83 1014.9
20260510103348 59 41 0.0 0.0 0.00 0.00 0.00 83 1014.9
20260510102854 59 41 0.0 0.0 0.00 0.00 0.00 84 1014.8
20260510102400 59 41 0.0 0.0 0.00 0.00 0.00 83 1014.7
20260510101849 59 41 0.0 0.0 0.00 0.00 0.00 83 1014.7
20260510101349 59 41 0.0 0.0 0.00 0.00 0.00 84 1014.7
20260510100848 60 41 0.0 0.0 0.00 0.00 0.00 84 1014.6
20260510100348 60 41 0.0 0.0 0.00 0.00 0.00 84 1014.4
20260510095851 60 41 0.0 0.0 0.00 0.00 0.00 84 1014.4
20260510095358 60 41 0.0 0.0 0.00 0.00 0.00 84 1014.4
20260510094905 60 41 0.0 0.0 0.00 0.00 0.00 84 1014.3
20260510094413 60 41 0.0 0.0 0.00 0.00 0.00 84 1014.3
20260510093849 60 41 0.0 0.0 0.00 0.00 0.00 84 1014.4
20260510093349 60 41 0.0 0.0 0.00 0.00 0.00 84 1014.3
20260510092849 60 41 0.0 0.0 0.00 0.00 0.00 84 1014.2
20260510092349 60 41 0.0 0.0 0.00 0.00 0.00 84 1014.2
20260510091849 60 41 0.0 0.0 0.00 0.00 0.00 83 1014.1
20260510091348 60 41 0.0 0.0 0.00 0.00 0.00 83 1014.0
20260510090849 61 41 0.0 0.0 0.00 0.00 0.00 83 1014.1
20260510090348 61 41 0.0 0.0 0.00 0.00 0.00 83 1014.0
20260510085849 61 41 0.0 0.0 0.00 0.00 0.00 83 1014.0
20260510085354 61 41 0.0 0.0 0.00 0.00 0.00 83 1013.9
20260510084900 61 41 0.0 0.0 0.00 0.00 0.00 83 1013.8
20260510084349 61 41 0.0 0.0 0.00 0.00 0.00 83 1013.8
20260510083849 61 41 0.0 0.0 0.00 0.00 0.00 83 1013.7
20260510083348 61 41 0.0 0.0 0.00 0.00 0.00 83 1013.7
20260510082848 61 41 0.0 0.0 0.00 0.00 0.00 83 1013.7
20260510082348 61 41 0.0 0.0 0.00 0.00 0.00 83 1013.6
20260510081849 61 41 0.0 0.0 0.00 0.00 0.00 83 1013.5
20260510081348 61 41 0.0 0.0 0.00 0.00 0.00 83 1013.6
20260510080854 61 41 0.0 0.0 0.00 0.00 0.00 83 1013.5
20260510080401 61 41 0.0 0.0 0.00 0.00 0.00 83 1013.4
20260510075849 61 41 0.0 0.0 0.00 0.00 0.00 83 1013.4
20260510075349 61 41 0.0 0.0 0.00 0.00 0.00 83 1013.3
20260510074848 61 41 0.0 0.0 0.00 0.00 0.00 83 1013.3
20260510074349 61 41 0.0 0.0 0.00 0.00 0.00 83 1013.4
20260510073850 61 41 0.0 0.0 0.00 0.00 0.00 83 1013.3
20260510073356 61 41 0.0 0.0 0.00 0.00 0.00 83 1013.2
20260510072904 61 41 0.0 0.0 0.00 0.00 0.00 83 1013.2
20260510072411 62 41 0.0 0.0 0.00 0.00 0.00 83 1013.2
20260510071918 62 41 0.0 0.0 0.00 0.00 0.00 83 1013.2
20260510071412 62 41 0.0 0.0 0.00 0.00 0.00 83 1013.2
20260510070848 62 41 0.0 0.0 0.00 0.00 0.00 82 1013.2
20260510070348 62 41 0.0 0.0 0.00 0.00 0.00 82 1013.2
20260510065850 62 41 0.0 0.0 0.00 0.00 0.00 82 1013.3
20260510065357 62 41 0.0 0.0 0.00 0.00 0.00 82 1013.1
20260510064904 62 41 0.0 0.0 0.00 0.00 0.00 82 1013.2
20260510064359 62 41 0.0 0.0 0.00 0.00 0.00 82 1013.4
20260510063906 62 41 0.0 0.0 0.00 0.00 0.00 82 1013.2
20260510063413 62 41 0.0 0.0 0.00 0.00 0.00 82 1013.3
20260510062848 62 41 0.0 0.0 0.00 0.00 0.00 82 1013.2
20260510062348 62 41 0.0 0.0 0.00 0.00 0.00 82 1013.2
20260510061849 62 41 0.0 0.0 0.00 0.00 0.00 82 1013.4
20260510061348 62 41 0.0 0.0 0.00 0.00 0.00 82 1013.5
20260510060848 62 41 0.0 0.0 0.00 0.00 0.00 82 1013.5
20260510060348 62 41 0.0 0.0 0.00 0.00 0.00 82 1013.4
20260510055848 62 41 0.0 0.0 0.00 0.00 0.00 82 1013.4
20260510055016 62 41 0.0 0.0 0.00 0.00 0.00 83 1013.5
20260510054155 62 41 0.0 0.0 0.00 0.00 0.00 83 1013.5
20260510053228 62 41 0.0 0.0 0.00 0.00 0.00 83 1013.4
20260510052339 62 41 0.0 0.0 0.00 0.00 0.00 83 1013.5
20260510051439 62 41 0.0 0.0 0.00 0.00 0.00 83 1013.8
20260510050514 62 41 0.0 0.0 0.00 0.00 0.00 82 1013.8
20260510045633 62 41 0.0 0.0 0.00 0.00 0.00 82 1013.9
20260510045133 62 41 0.0 0.0 0.00 0.00 0.00 82 1013.9
20260510044633 62 41 0.0 0.0 0.00 0.00 0.00 81 1013.9
20260510044133 62 41 0.0 0.0 0.00 0.00 0.00 81 1013.9
20260510043638 62 41 0.0 0.0 0.00 0.00 0.00 81 1013.9
20260510043145 62 41 0.0 0.0 0.00 0.00 0.00 81 1013.8
20260510042633 62 41 0.0 0.0 0.00 0.00 0.00 80 1013.7
20260510042133 62 41 0.0 0.0 0.00 0.00 0.00 80 1013.8
20260510041638 62 41 0.0 0.0 0.00 0.00 0.00 80 1013.8
20260510041145 62 41 0.0 0.0 0.00 0.00 0.00 80 1013.6
20260510040633 62 41 0.0 0.0 0.00 0.00 0.00 80 1013.7
20260510040133 62 41 0.0 0.0 0.00 0.00 0.00 80 1013.8
20260510035633 62 41 0.0 0.0 0.00 0.00 0.00 79 1013.7
20260510035133 63 41 0.0 0.0 0.00 0.00 0.00 79 1013.7
20260510034633 63 41 0.0 0.0 0.00 0.00 0.00 79 1013.7
20260510034134 63 41 0.0 0.0 0.00 0.00 0.00 79 1013.7
20260510033633 63 41 0.0 0.0 0.00 0.00 0.00 79 1013.7
20260510033133 63 41 0.0 0.0 0.00 0.00 0.00 79 1013.6
20260510032633 63 41 0.0 0.0 0.00 0.00 0.00 79 1013.6
20260510032133 63 41 0.0 0.0 0.00 0.00 0.00 79 1013.6
20260510031640 63 41 0.0 0.0 0.00 0.00 0.00 78 1013.6
20260510031147 63 41 0.0 0.0 0.00 0.00 0.00 78 1013.6
20260510030642 63 41 0.0 0.0 0.00 0.00 0.00 78 1013.6
20260510030149 64 41 0.0 0.0 0.00 0.00 0.00 78 1013.7
20260510025655 64 41 0.0 0.0 0.00 0.00 0.00 78 1013.6
20260510025150 64 41 0.0 0.0 0.00 0.00 0.00 78 1013.6
20260510024657 64 41 0.0 0.0 0.00 0.00 0.00 78 1013.6
20260510024133 64 41 0.0 0.0 0.00 0.00 0.00 78 1013.5
20260510023633 64 41 0.0 0.0 0.00 0.00 0.00 78 1013.5
20260510023133 64 41 0.0 0.0 0.00 0.00 0.00 78 1013.6
20260510022633 64 41 0.0 0.0 0.00 0.00 0.00 77 1013.5
20260510022133 64 41 0.0 0.0 0.00 0.00 0.00 77 1013.4
20260510021633 64 41 0.0 0.0 0.00 0.00 0.00 77 1013.3
20260510021133 65 41 0.0 0.0 0.00 0.00 0.00 77 1013.1
20260510020638 65 41 0.0 0.0 0.00 0.00 0.00 77 1013.1
20260510020145 65 41 0.0 0.0 0.00 0.00 0.00 76 1013.1
20260510015633 65 41 0.0 0.0 0.00 0.00 0.00 76 1013.0
20260510015133 65 41 0.0 0.0 0.00 0.00 0.00 76 1013.2
20260510014633 65 41 0.0 0.0 0.00 0.00 0.00 76 1013.0
20260510014133 65 41 0.0 0.0 0.00 0.00 0.00 76 1013.0
20260510013254 66 41 0.0 0.0 0.00 0.00 0.00 76 1012.9
20260510012754 66 41 0.0 0.0 0.00 0.00 0.00 75 1012.8
20260510012254 66 41 0.0 0.0 0.00 0.00 0.00 75 1012.8
20260510011754 66 41 0.0 0.0 0.00 0.00 0.00 75 1012.7
20260510011254 66 41 0.0 0.0 0.00 0.00 0.00 75 1012.8
20260510010754 66 41 0.0 0.0 0.00 0.00 0.00 74 1012.8
20260510010254 67 41 0.0 0.0 0.00 0.00 0.00 74 1012.8
20260510005754 67 41 0.0 0.0 0.00 0.00 0.00 74 1012.8
20260510005254 67 41 0.0 0.0 0.00 0.00 0.00 74 1012.7
20260510004318 67 41 0.0 0.0 0.00 0.00 0.00 74 1012.5
20260510003754 68 41 0.0 0.0 0.00 0.00 0.00 73 1012.5
20260510003253 68 41 0.0 0.0 0.00 0.00 0.00 73 1012.4
20260510002759 68 41 0.0 0.0 0.00 0.00 0.00 72 1012.4
20260510002307 68 41 0.0 0.0 0.00 0.00 0.00 72 1012.5
20260510001754 68 41 0.0 0.0 0.00 0.00 0.00 72 1012.5
20260510001253 68 41 0.0 0.0 0.00 0.00 0.00 72 1012.4
20260510000753 69 41 0.0 0.0 0.00 0.00 0.00 72 1012.2
20260510000256 69 41 0.0 0.0 0.00 0.00 0.00 72 1012.1
20260509235753 69 41 0.0 0.0 0.00 0.00 0.00 72 1012.0
20260509235253 69 41 0.0 0.0 0.00 0.00 0.00 71 1012.0
20260509234753 69 41 0.0 0.0 0.00 0.00 0.00 71 1011.9
20260509234253 69 41 0.0 0.0 0.00 0.00 0.00 71 1011.9
20260509233753 70 41 0.0 0.0 0.00 0.00 0.00 71 1011.7
20260509233253 70 41 0.0 0.0 0.00 0.00 0.00 71 1011.8
20260509232753 70 41 0.0 0.0 0.00 0.00 0.00 70 1011.8
20260509232254 70 41 0.0 0.0 0.00 0.00 0.00 70 1011.8
20260509231754 70 41 0.0 0.0 0.00 0.00 0.00 70 1011.7
20260509231254 70 41 0.0 0.0 0.00 0.00 0.00 70 1011.7
20260509230754 70 41 0.0 0.0 0.00 0.00 0.00 70 1011.6
20260509230253 70 41 0.0 0.0 0.00 0.00 0.00 70 1011.6
20260509225753 71 41 0.0 0.0 0.00 0.00 0.00 69 1011.7
20260509225259 71 41 0.0 0.0 0.00 0.00 0.00 69 1011.5
20260509224806 71 41 0.0 0.0 0.00 0.00 0.00 69 1011.6
20260509224253 71 41 0.0 0.0 0.00 0.00 0.00 69 1011.6
20260509223754 71 41 0.0 0.0 0.00 0.00 0.00 68 1011.6
20260509223259 71 41 0.0 0.0 0.00 0.00 0.00 68 1011.5
20260509222806 71 41 0.0 0.0 0.00 0.00 0.00 68 1011.5
20260509222253 71 41 0.0 0.0 0.00 0.00 0.00 68 1011.5
20260509221753 71 41 0.0 0.0 0.00 0.00 0.00 68 1011.5
20260509221253 71 41 0.0 0.0 0.00 0.00 0.00 69 1011.4
20260509220759 71 41 0.0 0.0 0.00 0.00 0.00 68 1011.4
20260509220305 71 41 0.0 0.0 0.00 0.00 0.00 69 1011.3
20260509215753 72 41 0.0 0.0 0.00 0.00 0.00 68 1011.2
20260509215253 72 41 0.0 0.0 0.00 0.00 0.00 68 1011.2
20260509214754 72 41 0.0 0.0 0.00 0.00 0.00 68 1011.1
20260509214253 72 41 0.0 0.0 0.00 0.00 0.00 67 1011.1
20260509213753 72 41 0.0 0.0 0.00 0.00 0.00 67 1011.1
20260509213253 72 41 0.0 0.0 0.00 0.00 0.00 66 1011.1
20260509212754 72 41 0.0 0.0 0.00 0.00 0.00 66 1010.9
20260509212253 72 41 0.0 0.0 0.00 0.00 0.00 67 1011.0
20260509211754 72 41 0.0 0.0 0.00 0.00 0.00 66 1011.0
20260509211253 72 41 0.0 0.0 0.00 0.00 0.00 66 1011.1
20260509210753 72 41 0.0 0.0 0.00 0.00 0.00 66 1011.0
20260509210254 72 41 0.0 0.0 0.00 0.00 0.00 66 1011.0
20260509205407 72 41 0.0 0.0 0.00 0.00 0.00 68 1011.2
20260509204853 72 41 0.0 0.0 0.00 0.00 0.00 68 1011.1
20260509204400 72 41 0.0 0.0 0.00 0.00 0.00 67 1011.2
20260509203907 72 41 0.0 0.0 0.00 0.00 0.00 66 1011.4
20260509203414 72 41 0.0 0.0 0.00 0.00 0.00 66 1011.4
20260509202909 72 41 0.0 0.0 0.00 0.00 0.00 67 1011.4
20260509202416 72 41 0.0 0.0 0.00 0.00 0.00 66 1011.4
20260509201852 72 41 0.0 0.0 0.00 0.00 0.00 65 1011.5
20260509201352 72 41 0.0 0.0 0.00 0.00 0.00 67 1011.6
20260509200852 72 41 0.0 0.0 0.00 0.00 0.00 67 1011.6
20260509200352 72 41 0.0 0.0 0.00 0.00 0.00 66 1011.6
20260509195856 73 41 0.0 0.0 0.00 0.00 0.00 66 1011.6
20260509195402 73 41 0.0 0.0 0.00 0.00 0.00 66 1011.6
20260509194909 73 41 0.0 0.0 0.00 0.00 0.00 66 1011.9
20260509194416 73 41 0.0 0.0 0.00 0.00 0.00 66 1011.9
20260509193852 73 41 0.0 0.0 0.00 0.00 0.00 66 1012.0
20260509193357 72 41 0.0 0.0 0.00 0.00 0.00 67 1012.0
20260509192904 72 41 0.0 0.0 0.00 0.00 0.00 67 1012.1
20260509192352 72 41 0.0 0.0 0.00 0.00 0.00 67 1011.9
20260509191859 72 41 0.0 0.0 0.00 0.00 0.00 68 1011.8
20260509191406 72 41 0.0 0.0 0.00 0.00 0.00 68 1011.9